EW1044 Weather Reports


time (UTC)temp
C
wind
direction
speed
KPH
gust
KPH
rain 1hr
cm
rain 24hr
cm
rain mn
cm
humidity
%
barometer
mb
20260906164411 30 60 8.0 17.7 0.00 0.00 0.00 72 1018.6
20260906162435 30 66 9.7 17.7 0.00 0.00 0.00 72 1018.8
20260906161425 30 128 14.5 19.3 0.00 0.00 0.00 73 1018.8
20260906160401 29 93 11.3 20.9 0.00 0.00 0.00 74 1018.8
20260906154420 28 80 6.4 19.3 0.00 0.00 0.00 74 1018.6
20260906153419 28 80 11.3 20.9 0.00 0.00 0.00 74 1018.6
20260906152408 28 109 8.0 17.7 0.00 0.00 0.00 76 1018.5
20260906151408 28 89 8.0 19.3 0.00 0.00 0.00 78 1018.4
20260906145432 27 107 11.3 17.7 0.00 0.00 0.00 77 1018.4
20260906144441 27 113 12.9 19.3 0.00 0.00 0.00 78 1018.5
20260906143413 27 125 11.3 19.3 0.00 0.00 0.00 79 1018.4
20260906142402 27 104 6.4 17.7 0.00 0.00 0.00 80 1018.5
20260906141442 26 85 6.4 14.5 0.00 0.00 0.00 80 1018.5
20260906140427 26 112 8.0 16.1 0.00 0.00 0.00 81 1018.6
20260906135431 26 113 11.3 19.3 0.00 0.00 0.00 81 1018.6
20260906134436 25 106 8.0 16.1 0.00 0.00 0.00 84 1018.5
20260906133415 25 93 9.7 17.7 0.00 0.00 0.00 84 1018.2
20260906131405 24 102 8.0 17.7 0.00 0.00 0.00 86 1017.9
20260906130414 24 102 9.7 16.1 0.00 0.00 0.00 87 1017.7
20260906125407 23 96 11.3 17.7 0.00 0.00 0.00 89 1017.8
20260906124413 23 97 8.0 14.5 0.00 0.00 0.00 90 1017.7
20260906123426 23 88 4.8 16.1 0.00 0.00 0.00 91 1017.7
20260906122419 23 92 9.7 14.5 0.00 0.00 0.00 91 1017.5
20260906121414 23 98 8.0 12.9 0.00 0.00 0.00 91 1017.5
20260906120432 23 111 6.4 12.9 0.00 0.00 0.00 91 1017.5
20260906115406 23 100 6.4 12.9 0.00 0.00 0.00 92 1017.4
20260906114401 23 93 4.8 12.9 0.00 0.00 0.00 92 1017.3
20260906113421 23 99 6.4 14.5 0.00 0.00 0.00 92 1017.3
20260906112424 23 89 6.4 12.9 0.00 0.00 0.00 92 1017.3
20260906111403 23 106 8.0 16.1 0.00 0.00 0.00 92 1017.2
20260906110412 24 107 6.4 12.9 0.00 0.00 0.00 92 1017.2
20260906104439 24 105 6.4 11.3 0.00 0.00 0.00 92 1017.0
20260906103419 24 85 4.8 11.3 0.00 0.00 0.00 92 1017.0
20260906102413 24 90 4.8 12.9 0.00 0.00 0.00 92 1017.0
20260906101445 24 87 3.2 11.3 0.00 0.00 0.00 92 1016.9
20260906100436 24 67 8.0 14.5 0.00 0.00 0.00 92 1016.8
20260906095440 24 72 4.8 11.3 0.00 0.00 0.00 92 1016.7
20260906094415 24 85 6.4 12.9 0.00 0.00 0.00 92 1016.6
20260906093442 24 84 6.4 11.3 0.00 0.00 0.00 91 1016.6
20260906092410 25 90 4.8 14.5 0.00 0.00 0.00 91 1016.3
20260906091400 25 83 4.8 12.9 0.00 0.00 0.00 91 1016.3
20260906090409 25 88 4.8 14.5 0.00 0.00 0.00 90 1016.2
20260906085444 25 71 6.4 12.9 0.00 0.00 0.00 90 1016.3
20260906083434 25 68 6.4 14.5 0.00 0.00 0.00 89 1016.2
20260906082414 25 67 9.7 16.1 0.00 0.00 0.00 89 1016.1
20260906081414 25 72 6.4 12.9 0.00 0.00 0.00 89 1016.0
20260906075408 25 75 8.0 12.9 0.00 0.00 0.00 89 1015.9
20260906074442 25 77 6.4 11.3 0.00 0.00 0.00 88 1015.9
20260906073434 25 69 4.8 8.0 0.00 0.00 0.00 88 1016.1
20260906072438 25 69 4.8 8.0 0.00 0.00 0.00 88 1016.1
20260906071433 25 83 4.8 6.4 0.00 0.00 0.00 88 1016.2
20260906070414 25 85 0.0 4.8 0.00 0.00 0.00 88 1016.1
20260906065422 24 85 1.6 6.4 0.00 0.00 0.00 88 1016.0
20260906064436 24 81 4.8 8.0 0.00 0.00 0.00 87 1016.2
20260906063429 25 95 0.0 0.0 0.00 0.00 0.00 87 1016.2
20260906062417 25 95 0.0 0.0 0.00 0.00 0.00 85 1016.2
20260906061417 25 95 0.0 0.0 0.00 0.00 0.00 85 1016.2
20260906060441 25 95 0.0 0.0 0.00 0.00 0.00 84 1016.3
20260906054434 26 95 0.0 0.0 0.00 0.00 0.00 82 1016.3
20260906053412 26 95 0.0 0.0 0.00 0.00 0.00 81 1016.3
20260906050427 27 95 1.6 4.8 0.00 0.00 0.00 79 1016.2
20260906045418 27 95 3.2 4.8 0.00 0.00 0.00 79 1016.0
20260906044412 27 96 3.2 6.4 0.00 0.00 0.00 78 1016.1
20260906043427 27 96 1.6 4.8 0.00 0.00 0.00 77 1016.1
20260906042437 27 96 3.2 8.0 0.00 0.00 0.00 76 1016.0
20260906040422 27 96 3.2 6.4 0.00 0.00 0.00 75 1015.9
20260906035424 28 96 3.2 9.7 0.00 0.00 0.00 74 1015.9
20260906034421 28 98 4.8 6.4 0.00 0.00 0.00 74 1015.7
20260906033404 28 98 3.2 9.7 0.00 0.00 0.00 73 1015.6
20260906032417 28 109 6.4 11.3 0.00 0.00 0.00 72 1015.5
20260906031420 28 110 4.8 11.3 0.00 0.00 0.00 71 1015.4
20260906030418 28 105 6.4 11.3 0.00 0.00 0.00 71 1015.5
20260906025400 28 82 3.2 8.0 0.00 0.00 0.00 70 1015.5
20260906024408 28 84 3.2 11.3 0.00 0.00 0.00 69 1015.5
20260906023401 28 73 4.8 9.7 0.00 0.00 0.00 69 1015.3
20260906022408 28 76 4.8 8.0 0.00 0.00 0.00 69 1015.2
20260906020421 28 68 4.8 8.0 0.00 0.00 0.00 69 1015.0
20260906015433 28 62 4.8 8.0 0.00 0.00 0.00 69 1014.8
20260906014441 29 62 3.2 6.4 0.00 0.00 0.00 68 1014.6
20260906012407 29 60 4.8 8.0 0.00 0.00 0.00 67 1014.4
20260906011434 30 60 3.2 6.4 0.00 0.00 0.00 68 1014.3
20260906010405 31 60 0.0 0.0 0.00 0.00 0.00 63 1014.2
20260906005426 31 60 1.6 6.4 0.00 0.00 0.00 61 1014.2
20260906004432 31 60 3.2 8.0 0.00 0.00 0.00 60 1014.1
20260906003429 32 60 3.2 8.0 0.00 0.00 0.00 59 1014.1
20260906002446 32 60 6.4 11.3 0.00 0.00 0.00 58 1014.1
20260906000411 33 62 6.4 9.7 0.00 0.00 0.00 57 1014.2
20260905234421 33 72 6.4 9.7 0.00 0.00 0.00 54 1014.0
20260905233415 33 79 4.8 8.0 0.00 0.00 0.00 54 1014.0
20260905232424 34 73 3.2 8.0 0.00 0.00 0.00 52 1013.9
20260905231444 35 62 6.4 12.9 0.00 0.00 0.00 50 1013.9
20260905230430 35 75 4.8 11.3 0.00 0.00 0.00 48 1013.7
20260905225406 36 66 8.0 9.7 0.00 0.00 0.00 46 1013.7
20260905224428 36 69 4.8 17.7 0.00 0.00 0.00 45 1013.6
20260905223438 36 62 6.4 9.7 0.00 0.00 0.00 46 1013.6
20260905222411 36 64 6.4 12.9 0.00 0.00 0.00 45 1013.6
20260905221419 36 53 6.4 12.9 0.00 0.00 0.00 46 1013.6
20260905220441 37 38 9.7 12.9 0.00 0.00 0.00 44 1013.7
20260905214422 37 329 11.3 19.3 0.00 0.00 0.00 44 1013.7
20260905213443 37 300 6.4 14.5 0.00 0.00 0.00 42 1013.9
20260905212410 37 321 14.5 24.1 0.00 0.00 0.00 42 1014.2
20260905211436 37 338 8.0 12.9 0.00 0.00 0.00 43 1014.3
20260905210440 37 15 1.6 14.5 0.00 0.00 0.00 43 1014.3
20260905205404 37 313 4.8 16.1 0.00 0.00 0.00 41 1014.4
20260905204423 37 308 3.2 17.7 0.00 0.00 0.00 42 1014.5
20260905203417 37 273 6.4 16.1 0.00 0.00 0.00 43 1014.7
20260905202416 36 323 11.3 17.7 0.00 0.00 0.00 47 1014.8
20260905201442 36 317 3.2 14.5 0.00 0.00 0.00 45 1014.9
20260905195415 36 326 6.4 11.3 0.00 0.00 0.00 50 1015.2
20260905194426 36 340 6.4 12.9 0.00 0.00 0.00 44 1015.2
20260905193442 36 4 6.4 17.7 0.00 0.00 0.00 44 1015.3
20260905192415 36 339 4.8 14.5 0.00 0.00 0.00 45 1015.5
20260905191402 36 297 6.4 17.7 0.00 0.00 0.00 45 1015.5
20260905184433 36 304 8.0 19.3 0.00 0.00 0.00 48 1015.6
20260905183426 36 329 8.0 16.1 0.00 0.00 0.00 46 1015.8
20260905182439 36 329 9.7 12.9 0.00 0.00 0.00 46 1015.8
20260905181404 35 350 4.8 19.3 0.00 0.00 0.00 45 1015.9
20260905180404 36 303 9.7 20.9 0.00 0.00 0.00 45 1015.9
20260905175415 36 311 9.7 17.7 0.00 0.00 0.00 46 1016.0
20260905174446 35 308 6.4 17.7 0.00 0.00 0.00 47 1016.1
20260905173407 35 336 9.7 16.1 0.00 0.00 0.00 48 1016.4
20260905172417 35 315 11.3 16.1 0.00 0.00 0.00 52 1016.5
20260905171444 35 320 8.0 17.7 0.00 0.00 0.00 49 1016.5
20260905170411 35 288 9.7 16.1 0.00 0.00 0.00 52 1016.6
20260905165408 35 278 1.6 12.9 0.00 0.00 0.00 52 1016.7